Terminal Aerodrome Forecast
Issued by NWS

Home | Current Version | Previous Version | Text Only | Print | Product List | Glossary On
Versions: 1 2 3 4 5 6 7 8 9 10 11 12 13
000
FTUS42 TJSJ 282344
TAFNCM
TAF
TNCM 282344Z 2900/2924 12008KT P6SM FEW019
     FM291330 13012KT P6SM FEW020 SCT050
     FM292300 11008KT P6SM FEW020 SCT100=

USA.gov is the U.S. government's official web portal to all federal, state and local government web resources and services.